This demonstration page uses our WeatherBlox Daily Observations layout. Learn more.

39.92423, -83.80882

Hourly Observations for December 3, 2018

Temp ( °F °C ) Dew Point ( °F °C ) Humidity (%) Winds ( mph kmh ) Pressure ( in mb ) Visibility ( mi km ) Precip ( " mm )
12:24 am 00:24 Cloudy 43 6 34 1 71 71 WSW 21 33 29.74 1007 10 16.0934 0 0
12:56 am 00:56 Cloudy 42 5.6 34 1.1 73 73 WSW 23 37 29.71 1006 10 16.0934 0 0
1:56 am 01:56 Cloudy 41 5 34 1.1 76 76 WSW 17 28 29.72 1007 10 16.0934 0 0
2:12 am 02:12 Cloudy 43 6 34 1 71 71 WSW 15 24 29.77 1008 10 16.0934 0 0
2:34 am 02:34 Cloudy 41 5 34 1 76 76 WSW 16 26 29.77 1008 10 16.0934 0 0
2:56 am 02:56 Cloudy with Light Rain 40 4.4 35 1.7 83 83 W 20 31 29.75 1007 10 16.0934 0 0.0254
3:56 am 03:56 Cloudy 40 4.4 35 1.7 83 83 W 15 24 29.76 1008 10 16.0934 0 0.0254
4:56 am 04:56 Cloudy 40 4.4 35 1.7 83 83 W 21 33 29.78 1008 10 16.0934 0 0
5:56 am 05:56 Cloudy with Light Rain 39 3.9 35 1.7 86 86 WSW 15 24 29.8 1009 10 16.0934 0 0.0254
6:56 am 06:56 Cloudy with Light Rain 38 3.3 36 2.2 93 93 WSW 10 17 29.83 1010 10 16.0934 0 0.0254
7:56 am 07:56 Cloudy with Light Rain 38 3.3 36 2.2 93 93 W 14 22 29.85 1011 10 16.0934 0 0.0254
8:52 am 08:52 Cloudy with Light Rain 37 3 36 2 93 93 WSW 15 24 29.85 1011 10 16.0934 0 0.0254
8:56 am 08:56 Cloudy with Light Rain 38 3.3 36 2.2 93 93 WSW 14 22 29.86 1011 10 16.0934 0 0.0254
9:17 am 09:17 Cloudy 37 3 36 2 93 93 W 13 20 29.88 1012 10 16.0934 0 0.0254
9:56 am 09:56 Cloudy 38 3.3 35 1.7 89 89 W 14 22 29.89 1012 10 16.0934 0 0.0254
10:56 am 10:56 Cloudy 38 3.3 35 1.7 89 89 W 15 24 29.9 1013 10 16.0934 0 0
11:07 am 11:07 Cloudy 39 4 36 2 87 87 W 14 22 29.91 1013 10 16.0934 0 0
11:33 am 11:33 Cloudy 39 4 36 2 87 87 W 12 19 29.91 1013 10 16.0934 0 0
11:51 am 11:51 Cloudy 39 4 36 2 87 87 W 13 20 29.91 1013 10 16.0934 0 0
11:56 am 11:56 Cloudy 39 3.9 35 1.7 86 86 W 15 24 29.9 1013 10 16.0934 0 0
12:21 pm 12:21 Cloudy with Light Rain 37 3 36 2 93 93 W 12 19 29.91 1013 4 6.43736 0 0.0254
12:44 pm 12:44 Cloudy with Light Rain 37 3 36 2 93 93 W 13 20 29.91 1013 5 8.0467 0 0.0254
12:54 pm 12:54 Cloudy with Light Rain 37 3 36 2 93 93 W 12 19 29.91 1013 4 6.43736 0 0.0254
12:56 pm 12:56 Cloudy with Light Rain 37 2.8 36 2.2 96 96 W 13 20 29.9 1013 4 6.43736 0 0.0254
1:06 pm 13:06 Cloudy with Light Rain 37 3 36 2 93 93 W 14 22 29.91 1013 6 9.65604 0 0.0254
1:21 pm 13:21 Cloudy 37 3 36 2 93 93 W 10 17 29.91 1013 10 16.0934 0 0.0254
1:37 pm 13:37 Cloudy with Light Rain 37 3 36 2 93 93 W 14 22 29.91 1013 6 9.65604 0 0.0254
1:56 pm 13:56 Cloudy with Light Rain 38 3.3 36 2.2 93 93 W 14 22 29.91 1013 10 16.0934 0 0.0254
2:56 pm 14:56 Cloudy with Light Rain 38 3.3 36 2.2 93 93 W 14 22 29.92 1013 10 16.0934 0 0.0254
3:56 pm 15:56 Cloudy 38 3.3 35 1.7 89 89 W 10 17 29.95 1014 10 16.0934 0 0.0254
4:40 pm 16:40 Cloudy 37 3 36 2 93 93 W 12 19 29.97 1015 10 16.0934 0 0.0254
4:56 pm 16:56 Cloudy with Light Rain 37 2.8 35 1.7 93 93 WNW 13 20 29.97 1015 9 14.48406 0 0.0254
5:15 pm 17:15 Cloudy with Light Rain 36 2 36 2 100 100 WNW 10 17 30 1016 7 11.26538 0.01 0.254
5:28 pm 17:28 Cloudy 37 3 36 2 93 93 WNW 13 20 30 1016 10 16.0934 0.01 0.254
5:56 pm 17:56 Cloudy with Light Rain 36 2.2 34 1.1 93 93 WNW 9 15 29.99 1016 6 9.65604 0.01 0.254
6:13 pm 18:13 Cloudy 36 2 36 2 100 100 WNW 8 13 30.03 1017 10 16.0934 0 0.0254
6:56 pm 18:56 Cloudy 35 1.7 34 1.1 96 96 WNW 10 17 30.02 1017 10 16.0934 0 0.0254
7:18 pm 19:18 Cloudy 36 2 34 1 93 93 WNW 9 15 30.06 1018 10 16.0934 0 0
7:30 pm 19:30 Cloudy 36 2 34 1 93 93 NW 7 11 30.06 1018 10 16.0934 0 0
7:56 pm 19:56 Cloudy 35 1.7 34 1.1 96 96 NW 7 11 30.04 1017 10 16.0934 0 0
8:09 pm 20:09 Cloudy 36 2 34 1 93 93 NW 5 7 30.06 1018 10 16.0934 0 0
8:32 pm 20:32 Cloudy 36 2 34 1 93 93 NW 6 9 30.09 1019 10 16.0934 0 0
8:40 pm 20:40 Cloudy 36 2 34 1 93 93 NNW 3 6 30.09 1019 10 16.0934 0 0
8:56 pm 20:56 Cloudy 35 1.7 34 1.1 96 96 NW 3 6 30.05 1018 10 16.0934 0 0
9:38 pm 21:38 Cloudy with Light Rain 34 1 34 1 100 100 NNW 6 9 30.09 1019 4 6.43736 0 0.0254
9:56 pm 21:56 Cloudy with Light Rain 34 1.1 34 1.1 100 100 NNW 5 7 30.07 1018 7 11.26538 0 0.0254
10:02 pm 22:02 Cloudy with Light Rain 34 1 34 1 100 100 N 9 15 30.09 1019 10 16.0934 0 0.0254
10:13 pm 22:13 Cloudy with Light Rain 34 1 34 1 100 100 N 10 17 30.09 1019 10 16.0934 0 0.0254
10:50 pm 22:50 Cloudy with Light Snow 34 1 32 0 93 93 N 9 15 30.12 1020 10 16.0934 0 0.0254
10:56 pm 22:56 Cloudy with Light Snow 34 1.1 32 0 92 92 N 13 20 30.09 1019 9 14.48406 0 0.0254
11:07 pm 23:07 Cloudy with Light Snow 34 1 32 0 93 93 N 12 19 30.12 1020 6 9.65604 0 0.0254
11:14 pm 23:14 Cloudy with Light Snow 34 1 32 0 93 93 N 9 15 30.12 1020 5 8.0467 0 0.0254
11:24 pm 23:24 Cloudy with Light Snow 34 1 32 0 93 93 N 12 19 30.12 1020 7 11.26538 0 0.0254
11:35 pm 23:35 Cloudy with Light Snow 34 1 30 -1 87 87 N 9 15 30.12 1020 9 14.48406 0 0.0254
11:42 pm 23:42 Cloudy with Light Snow 34 1 30 -1 87 87 N 8 13 30.12 1020 9 14.48406 0 0.0254
11:56 pm 23:56 Cloudy with Light Snow 33 0.6 31 -0.6 92 92 N 9 15 30.09 1019 9 14.48406 0 0.0254

Powered by AerisWeather